Hourly Weather Holowienki

Today, 11 April, Sunday

Time Temperature Precipitation Wind Pressure Humidity
00:00 +10°C° 0 mm 1 mps 752 mmHg 75%
01:00 +10°C° 0 mm 1 mps 752 mmHg 70%
02:00 +10°C° 0 mm 1 mps 752 mmHg 71%
03:00 +9°C° 0 mm 2 mps 752 mmHg 72%
04:00 +9°C° 0 mm 2 mps 752 mmHg 72%
05:00 +9°C° 0 mm 2 mps 752 mmHg 72%
06:00 +10°C° 0 mm 3 mps 752 mmHg 71%
07:00 +10°C° 0 mm 3 mps 752 mmHg 71%
08:00 +12°C° 0 mm 4 mps 752 mmHg 65%
09:00 +13°C° 0 mm 5 mps 752 mmHg 59%
10:00 +15°C° 0 mm 6 mps 752 mmHg 52%
11:00 +16°C° 0 mm 7 mps 752 mmHg 49%
12:00 +17°C° 0 mm 8 mps 752 mmHg 46%
13:00 +17°C° 0 mm 8 mps 752 mmHg 43%
14:00 +17°C° 0 mm 8 mps 752 mmHg 45%
15:00 +17°C° 0 mm 7 mps 751 mmHg 47%
16:00 +17°C° 0 mm 7 mps 751 mmHg 49%
17:00 +16°C° 0 mm 6 mps 751 mmHg 51%
18:00 +14°C° 0 mm 6 mps 752 mmHg 54%
19:00 +13°C° 0 mm 5 mps 752 mmHg 57%
20:00 +13°C° 0 mm 6 mps 752 mmHg 58%
21:00 +11°C° 0 mm 6 mps 752 mmHg 59%
22:00 +11°C° 0 mm 6 mps 752 mmHg 61%
23:00 +10°C° 0 mm 6 mps 752 mmHg 62%

Tomorrow, 12 April, Monday

Time Temperature Precipitation Wind Pressure Humidity
00:00 +10°C° 0 mm 6 mps 752 mmHg 63%
01:00 +9°C° 0 mm 5 mps 752 mmHg 64%
02:00 +9°C° 0 mm 5 mps 752 mmHg 65%
03:00 +9°C° 0 mm 5 mps 752 mmHg 65%
04:00 +8°C° 0 mm 5 mps 751 mmHg 66%
05:00 +8°C° 0 mm 5 mps 751 mmHg 69%
06:00 +8°C° 0 mm 5 mps 751 mmHg 72%
07:00 +8°C° 0 mm 5 mps 751 mmHg 74%
08:00 +9°C° 0 mm 5 mps 751 mmHg 73%
09:00 +10°C° 0 mm 5 mps 751 mmHg 71%
10:00 +12°C° 0 mm 5 mps 751 mmHg 69%
11:00 +13°C° 0 mm 4 mps 751 mmHg 69%
12:00 +13°C° 0 mm 4 mps 751 mmHg 68%
13:00 +14°C° 0 mm 3 mps 751 mmHg 68%
14:00 +13°C° 0.1 mm 3 mps 751 mmHg 72%
15:00 +14°C° 0.1 mm 2 mps 750 mmHg 75%
16:00 +13°C° 0.1 mm 2 mps 750 mmHg 79%
17:00 +13°C° 0.1 mm 2 mps 751 mmHg 83%
18:00 +12°C° 0.1 mm 2 mps 751 mmHg 86%
19:00 +10°C° 0.1 mm 2 mps 751 mmHg 89%
20:00 +10°C° 0 mm 2 mps 751 mmHg 90%
21:00 +9°C° 0 mm 3 mps 752 mmHg 91%
22:00 +9°C° 0 mm 3 mps 752 mmHg 92%
23:00 +7°C° 0 mm 4 mps 752 mmHg 91%

Day after tomorrow, 13 April, Tuesday

Time Temperature Precipitation Wind Pressure Humidity
00:00 +5°C° 0 mm 4 mps 753 mmHg 91%
01:00 +3°C° 0 mm 5 mps 753 mmHg 90%
02:00 +3°C° 0 mm 5 mps 753 mmHg 89%
03:00 +2°C° 0 mm 5 mps 754 mmHg 88%
04:00 +2°C° 0 mm 5 mps 754 mmHg 87%
05:00 +2°C° 0 mm 5 mps 754 mmHg 86%
06:00 +2°C° 0 mm 5 mps 754 mmHg 86%
07:00 +2°C° 0 mm 5 mps 755 mmHg 85%
08:00 +2°C° 0.2 mm 5 mps 755 mmHg 88%
09:00 +1°C° 0.2 mm 5 mps 755 mmHg 91%
10:00 +1°C° 0.2 mm 5 mps 756 mmHg 93%
11:00 +1°C° 0.3 mm 5 mps 756 mmHg 93%
12:00 +1°C° 0.3 mm 5 mps 756 mmHg 92%
13:00 +1°C° 0.3 mm 6 mps 756 mmHg 91%
14:00 +2°C° 0.1 mm 5 mps 756 mmHg 89%
15:00 +2°C° 0.1 mm 5 mps 755 mmHg 86%
16:00 +2°C° 0.1 mm 5 mps 755 mmHg 84%
17:00 +2°C° 0.2 mm 5 mps 755 mmHg 84%
18:00 +2°C° 0.2 mm 5 mps 755 mmHg 83%
19:00 +3°C° 0.2 mm 4 mps 755 mmHg 82%
20:00 +1°C° 0.5 mm 5 mps 755 mmHg 86%
21:00 +1°C° 0.5 mm 5 mps 755 mmHg 90%
22:00 -1°C° 0.5 mm 6 mps 755 mmHg 94%
23:00 -1°C° 0.5 mm 6 mps 755 mmHg 93%

14 April, Wednesday

Time Temperature Precipitation Wind Pressure Humidity
00:00 -1°C° 0.5 mm 6 mps 754 mmHg 92%
01:00 -2°C° 0.5 mm 6 mps 754 mmHg 91%
02:00 -2°C° 0.5 mm 6 mps 754 mmHg 93%
03:00 -2°C° 0.5 mm 6 mps 754 mmHg 94%
04:00 -2°C° 0.5 mm 7 mps 754 mmHg 96%
05:00 -2°C° 0.7 mm 7 mps 753 mmHg 96%
06:00 -2°C° 0.7 mm 7 mps 753 mmHg 97%
07:00 -2°C° 0.7 mm 7 mps 753 mmHg 97%
08:00 -2°C° 0.9 mm 7 mps 753 mmHg 97%
09:00 -2°C° 0.9 mm 7 mps 753 mmHg 97%
10:00 -2°C° 0.9 mm 7 mps 753 mmHg 98%
11:00 -1°C° 0.7 mm 7 mps 753 mmHg 98%
12:00 -1°C° 0.7 mm 7 mps 753 mmHg 98%
13:00 -1°C° 0.7 mm 6 mps 753 mmHg 98%
14:00 -1°C° 0.4 mm 6 mps 752 mmHg 97%
15:00 +1°C° 0.4 mm 6 mps 752 mmHg 97%
16:00 +1°C° 0.4 mm 6 mps 752 mmHg 96%
17:00 0°C° 0.4 mm 7 mps 752 mmHg 96%
18:00 0°C° 0.4 mm 7 mps 752 mmHg 97%
19:00 0°C° 0.4 mm 7 mps 752 mmHg 97%
20:00 -1°C° 0.8 mm 7 mps 752 mmHg 97%
21:00 -1°C° 0.8 mm 7 mps 751 mmHg 97%
22:00 -1°C° 0.8 mm 6 mps 751 mmHg 98%
23:00 -1°C° 0.9 mm 6 mps 751 mmHg 98%

15 April, Thursday

Time Temperature Precipitation Wind Pressure Humidity
00:00 -1°C° 0.9 mm 6 mps 751 mmHg 98%
01:00 0°C° 0.9 mm 5 mps 751 mmHg 98%
02:00 0°C° 0.2 mm 5 mps 751 mmHg 98%
03:00 0°C° 0.2 mm 5 mps 751 mmHg 98%
04:00 0°C° 0.2 mm 5 mps 751 mmHg 98%
05:00 +1°C° 0.1 mm 5 mps 751 mmHg 97%
06:00 +1°C° 0.1 mm 5 mps 751 mmHg 97%
07:00 +1°C° 0.1 mm 5 mps 751 mmHg 97%
08:00 +1°C° 0 mm 5 mps 752 mmHg 96%
09:00 +2°C° 0 mm 6 mps 752 mmHg 95%
10:00 +2°C° 0 mm 6 mps 752 mmHg 95%
11:00 +2°C° 0.1 mm 6 mps 752 mmHg 94%
12:00 +2°C° 0.1 mm 6 mps 753 mmHg 94%
13:00 +2°C° 0.1 mm 6 mps 753 mmHg 94%
14:00 +2°C° 0.2 mm 6 mps 753 mmHg 92%
15:00 +3°C° 0.2 mm 6 mps 753 mmHg 91%
16:00 +3°C° 0.2 mm 6 mps 753 mmHg 89%
17:00 +3°C° 0.1 mm 6 mps 753 mmHg 89%
18:00 +3°C° 0.1 mm 6 mps 753 mmHg 89%
19:00 +3°C° 0.1 mm 6 mps 754 mmHg 89%
20:00 +3°C° 0.1 mm 6 mps 754 mmHg 89%
21:00 +3°C° 0.1 mm 6 mps 754 mmHg 89%
22:00 +2°C° 0.1 mm 6 mps 754 mmHg 89%
23:00 +2°C° 0.1 mm 6 mps 754 mmHg 88%

16 April, Friday

Time Temperature Precipitation Wind Pressure Humidity
00:00 +2°C° 0.1 mm 6 mps 754 mmHg 87%
01:00 +2°C° 0.1 mm 6 mps 754 mmHg 86%
02:00 +2°C° 0.1 mm 6 mps 754 mmHg 88%
03:00 +2°C° 0.1 mm 5 mps 754 mmHg 89%
04:00 +1°C° 0.1 mm 5 mps 754 mmHg 90%
05:00 +2°C° 0.1 mm 5 mps 754 mmHg 90%
06:00 +2°C° 0.1 mm 5 mps 755 mmHg 90%
07:00 +2°C° 0.1 mm 5 mps 755 mmHg 90%
08:00 +2°C° 0.1 mm 5 mps 755 mmHg 90%
09:00 +2°C° 0.1 mm 5 mps 756 mmHg 90%
10:00 +2°C° 0.1 mm 6 mps 756 mmHg 90%
11:00 +2°C° 0 mm 6 mps 756 mmHg 88%
12:00 +3°C° 0 mm 6 mps 756 mmHg 86%
13:00 +3°C° 0 mm 6 mps 757 mmHg 85%
14:00 +3°C° 0 mm 6 mps 757 mmHg 84%
15:00 +5°C° 0 mm 5 mps 757 mmHg 82%
16:00 +5°C° 0 mm 5 mps 757 mmHg 81%
17:00 +5°C° 0 mm 4 mps 758 mmHg 83%
18:00 +4°C° 0 mm 4 mps 758 mmHg 85%
19:00 +4°C° 0 mm 3 mps 758 mmHg 86%
20:00 +4°C° 0.2 mm 4 mps 759 mmHg 87%
21:00 +4°C° 0.2 mm 4 mps 759 mmHg 88%
22:00 +3°C° 0.2 mm 5 mps 759 mmHg 89%
23:00 +4°C° 0 mm 4 mps 759 mmHg 86%
Show more